Voltar ao catálogo

KUIPER-00613

AtivoComunicaçõesLEO
NORAD 69293·PAYLOAD·🇺🇸 United States

Lançado May 29, 2026 de Vandenberg Space Force Base

Loading…

Próximas Passagens (próximas 24 horas)

TLE

AtualizadoSource: CelesTrak SupGP

Época: Sep 14, 2026, 23:35 UTC

1 69293C 26118AC  26257.98307870  .00001620  00000+0  21215-3 0  2570
2 69293  51.9016   6.0894 0000461  97.1369 165.8090 14.79921503    17

Acompanhe KUIPER-00613 em tempo real com AllMySat

Download on the App Store